GW1986 Weather Reports


Display with metric or nautical units.
time (UTC)temp
F
wind
direction
speed
MPH
gust
MPH
rain 1hr
in
rain 24hr
in
rain mn
in
humidity
%
barometer
mb
20260504130517 44 248 9.0 13.0 0.00 0.00 0.00 70 1015.6
20260504120107 43 244 8.0 10.0 0.00 0.00 0.00 69 1015.8
20260504110515 44 229 7.0 9.0 0.00 0.00 0.00 67 1015.8
20260504100510 44 283 5.0 9.0 0.00 0.00 0.00 65 1016.1
20260504081538 47 37 19.0 25.0 0.00 0.00 0.00 60 1015.4
20260504081013 47 44 17.0 27.0 0.00 0.00 0.00 59 1015.2
20260504080515 47 32 16.0 27.0 0.00 0.00 0.00 59 1015.2
20260504050515 54 28 24.0 37.0 0.00 0.00 0.00 40 1010.5
20260504045516 54 26 30.0 41.0 0.00 0.00 0.00 39 1010.6
20260504045013 55 17 27.0 34.0 0.00 0.00 0.00 40 1010.6
20260504044542 56 29 24.0 32.0 0.00 0.00 0.00 41 1010.0
20260504044013 57 30 23.0 30.0 0.00 0.00 0.00 40 1009.9
20260504043511 58 21 22.0 29.0 0.00 0.00 0.00 39 1010.0
20260504043041 58 28 22.0 28.0 0.00 0.00 0.00 39 1010.0
20260504042515 58 34 18.0 24.0 0.00 0.00 0.00 39 1009.7
20260504042013 58 32 17.0 22.0 0.00 0.00 0.00 38 1009.7
20260504041536 58 30 14.0 21.0 0.00 0.00 0.00 39 1009.6
20260504041014 58 34 12.0 16.0 0.00 0.00 0.00 39 1009.4
20260504040513 57 13 11.0 16.0 0.00 0.00 0.00 38 1009.5
20260504040038 57 20 10.0 16.0 0.00 0.00 0.00 37 1009.5
20260504035513 57 12 11.0 16.0 0.00 0.00 0.00 37 1009.1
20260504035015 58 355 10.0 16.0 0.00 0.00 0.00 37 1009.1
20260504034540 58 9 11.0 22.0 0.00 0.00 0.00 37 1009.1
20260504034012 59 23 16.0 22.0 0.00 0.00 0.00 37 1009.0
20260504033513 59 19 16.0 25.0 0.00 0.00 0.00 37 1008.9
20260504033035 59 32 15.0 25.0 0.00 0.00 0.00 38 1008.7
20260504032514 59 33 16.0 22.0 0.00 0.00 0.00 38 1008.5
20260504032015 59 14 15.0 22.0 0.00 0.00 0.00 39 1008.4
20260504031537 59 38 16.0 24.0 0.00 0.00 0.00 38 1008.4
20260504031015 60 28 18.0 26.0 0.00 0.00 0.00 38 1008.3
20260504030515 60 26 21.0 26.0 0.00 0.00 0.00 37 1008.1
20260504030043 60 32 19.0 24.0 0.00 0.00 0.00 37 1008.0
20260504025514 61 29 18.0 24.0 0.00 0.00 0.00 37 1007.9
20260504025013 61 34 19.0 24.0 0.00 0.00 0.00 37 1007.9
20260504024539 61 33 15.0 21.0 0.00 0.00 0.00 36 1007.9
20260504024013 62 28 15.0 21.0 0.00 0.00 0.00 34 1007.8
20260504023514 62 33 11.0 16.0 0.00 0.00 0.00 32 1007.8
20260504023039 63 29 12.0 16.0 0.00 0.00 0.00 30 1007.6
20260504022512 63 33 9.0 15.0 0.00 0.00 0.00 25 1007.8
20260504022014 64 5 5.0 8.0 0.00 0.00 0.00 24 1007.6
20260504021535 65 10 4.0 8.0 0.00 0.00 0.00 24 1007.7
20260504021015 66 5 4.0 10.0 0.00 0.00 0.00 23 1007.6
20260504020514 66 13 7.0 11.0 0.00 0.00 0.00 23 1007.4
20260504020037 67 5 7.0 14.0 0.00 0.00 0.00 22 1007.5
20260504015513 67 9 10.0 15.0 0.00 0.00 0.00 22 1007.8
20260504015011 68 360 11.0 20.0 0.00 0.00 0.00 21 1007.8
20260504014553 68 360 13.0 20.0 0.00 0.00 0.00 21 1007.7
20260504014012 68 345 11.0 19.0 0.00 0.00 0.00 21 1007.8
20260504013519 69 5 15.0 19.0 0.00 0.00 0.00 21 1007.7
20260504013038 69 352 13.0 19.0 0.00 0.00 0.00 21 1007.7
20260504012515 70 352 15.0 19.0 0.00 0.00 0.00 21 1007.8
20260504012020 70 351 15.0 20.0 0.00 0.00 0.00 20 1007.8
20260504011542 71 352 16.0 20.0 0.00 0.00 0.00 21 1007.6
20260504011014 71 342 13.0 21.0 0.00 0.00 0.00 21 1007.7
20260504010513 71 340 15.0 21.0 0.00 0.00 0.00 21 1007.8
20260504010038 71 326 15.0 22.0 0.00 0.00 0.00 21 1007.8
20260504005511 71 336 15.0 22.0 0.00 0.00 0.00 21 1008.0
20260504005014 72 348 16.0 22.0 0.00 0.00 0.00 20 1008.0
20260504004537 72 338 14.0 21.0 0.00 0.00 0.00 21 1008.0
20260504004013 72 346 15.0 21.0 0.00 0.00 0.00 20 1008.2
20260504003512 72 315 13.0 25.0 0.00 0.00 0.00 21 1008.3
20260504003050 72 346 16.0 25.0 0.00 0.00 0.00 20 1008.3
20260504002515 72 338 15.0 20.0 0.00 0.00 0.00 20 1008.4
20260504002015 72 338 15.0 21.0 0.00 0.00 0.00 20 1008.4
20260504001542 72 323 10.0 23.0 0.00 0.00 0.00 20 1008.3
20260504001013 72 5 16.0 23.0 0.00 0.00 0.00 20 1008.6
20260504000512 72 338 13.0 18.0 0.00 0.00 0.00 20 1008.3
20260504000049 72 313 13.0 27.0 0.00 0.00 0.00 20 1008.6
20260503235513 73 321 18.0 27.0 0.00 0.00 0.00 20 1008.3
20260503235013 73 331 16.0 22.0 0.00 0.00 0.00 19 1008.4
20260503234546 72 327 15.0 24.0 0.00 0.00 0.00 20 1008.3
20260503234016 72 334 5.0 27.0 0.00 0.00 0.00 20 1008.4
20260503233513 73 338 22.0 27.0 0.00 0.00 0.00 20 1008.3
20260503233043 73 319 12.0 22.0 0.00 0.00 0.00 20 1008.4
20260503232515 73 329 16.0 25.0 0.00 0.00 0.00 19 1008.3
20260503232015 73 311 19.0 25.0 0.00 0.00 0.00 19 1008.5
20260503231545 73 337 13.0 23.0 0.00 0.00 0.00 19 1008.6
20260503231018 73 306 16.0 27.0 0.00 0.00 0.00 19 1008.7
20260503230516 73 313 20.0 27.0 0.00 0.00 0.00 19 1008.9
20260503230044 73 338 11.0 24.0 0.00 0.00 0.00 20 1008.1
20260503225520 72 334 14.0 23.0 0.00 0.00 0.00 19 1008.7
20260503225015 73 311 16.0 23.0 0.00 0.00 0.00 19 1008.8
20260503224538 73 283 15.0 28.0 0.00 0.00 0.00 19 1008.7
20260503224015 73 322 18.0 28.0 0.00 0.00 0.00 19 1008.7
20260503223521 73 306 12.0 22.0 0.00 0.00 0.00 19 1009.0
20260503223041 73 277 12.0 22.0 0.00 0.00 0.00 19 1008.9
20260503222515 73 332 14.0 23.0 0.00 0.00 0.00 20 1008.9
20260503222017 73 325 17.0 23.0 0.00 0.00 0.00 20 1009.1
20260503221548 73 298 16.0 21.0 0.00 0.00 0.00 20 1009.2
20260503221018 72 265 10.0 25.0 0.00 0.00 0.00 21 1009.2
20260503220519 72 270 17.0 25.0 0.00 0.00 0.00 20 1009.3
20260503220047 72 304 13.0 25.0 0.00 0.00 0.00 20 1009.4
20260503215519 72 321 18.0 25.0 0.00 0.00 0.00 20 1009.4
20260503215015 72 323 16.0 24.0 0.00 0.00 0.00 20 1009.3
20260503214535 72 311 15.0 25.0 0.00 0.00 0.00 20 1009.3
20260503214013 72 286 13.0 24.0 0.00 0.00 0.00 21 1009.4
20260503213515 72 290 16.0 41.0 0.00 0.00 0.00 21 1009.6
20260503213050 72 278 16.0 41.0 0.00 0.00 0.00 20 1009.4
20260503212513 72 338 17.0 23.0 0.00 0.00 0.00 20 1009.7
20260503212015 72 327 14.0 22.0 0.00 0.00 0.00 20 1009.9
20260503211544 72 264 11.0 23.0 0.00 0.00 0.00 21 1010.1
20260503211015 72 304 15.0 23.0 0.00 0.00 0.00 21 1010.0
20260503210515 71 260 13.0 31.0 0.00 0.00 0.00 21 1010.1
20260503210042 71 321 15.0 31.0 0.00 0.00 0.00 21 1010.1
20260503205515 71 319 20.0 26.0 0.00 0.00 0.00 21 1010.4
20260503205016 72 275 12.0 26.0 0.00 0.00 0.00 22 1010.3
20260503204547 70 261 11.0 22.0 0.00 0.00 0.00 22 1010.4
20260503204014 70 262 11.0 24.0 0.00 0.00 0.00 20 1010.4
20260503203515 71 293 16.0 24.0 0.00 0.00 0.00 21 1010.4
20260503203037 71 301 15.0 23.0 0.00 0.00 0.00 21 1010.7
20260503202515 70 306 15.0 23.0 0.00 0.00 0.00 22 1010.5
20260503202013 70 324 15.0 23.0 0.00 0.00 0.00 21 1010.6
20260503201544 71 297 14.0 23.0 0.00 0.00 0.00 21 1011.0
20260503201015 71 258 13.0 22.0 0.00 0.00 0.00 22 1010.9
20260503200517 71 329 15.0 22.0 0.00 0.00 0.00 21 1011.0
20260503200037 69 319 12.0 25.0 0.00 0.00 0.00 23 1011.2
20260503195514 69 269 19.0 26.0 0.00 0.00 0.00 22 1011.0
20260503195016 69 259 12.0 26.0 0.00 0.00 0.00 22 1011.0
20260503194545 69 265 13.0 24.0 0.00 0.00 0.00 23 1011.2
20260503194015 69 252 11.0 24.0 0.00 0.00 0.00 24 1011.3
20260503193518 70 273 16.0 24.0 0.00 0.00 0.00 23 1011.2
20260503193049 69 313 13.0 24.0 0.00 0.00 0.00 22 1011.5
20260503192514 70 315 17.0 24.0 0.00 0.00 0.00 22 1011.1
20260503192015 69 309 16.0 23.0 0.00 0.00 0.00 22 1011.4
20260503191538 69 266 14.0 23.0 0.00 0.00 0.00 23 1011.5
20260503191016 69 307 18.0 23.0 0.00 0.00 0.00 21 1011.6
20260503190517 69 292 18.0 23.0 0.00 0.00 0.00 21 1011.5
20260503190051 69 278 13.0 23.0 0.00 0.00 0.00 23 1011.7
20260503185514 68 352 4.0 18.0 0.00 0.00 0.00 23 1011.7
20260503185014 69 274 11.0 18.0 0.00 0.00 0.00 23 1012.0
20260503184555 68 242 4.0 19.0 0.00 0.00 0.00 23 1012.0
20260503184013 68 322 9.0 21.0 0.00 0.00 0.00 22 1012.0
20260503183515 69 341 12.0 23.0 0.00 0.00 0.00 22 1011.8
20260503183056 68 267 15.0 21.0 0.00 0.00 0.00 23 1012.0
20260503182516 68 280 9.0 23.0 0.00 0.00 0.00 23 1012.0
20260503182016 68 268 12.0 23.0 0.00 0.00 0.00 21 1012.1
20260503181558 68 269 12.0 21.0 0.00 0.00 0.00 23 1012.2
20260503181014 68 345 16.0 21.0 0.00 0.00 0.00 23 1012.1
20260503180514 68 283 7.0 24.0 0.00 0.00 0.00 24 1012.3
20260503180050 68 311 12.0 24.0 0.00 0.00 0.00 23 1012.4
20260503175512 68 293 16.0 25.0 0.00 0.00 0.00 24 1012.1
20260503175018 68 352 17.0 25.0 0.00 0.00 0.00 23 1012.4
20260503174546 68 329 9.0 17.0 0.00 0.00 0.00 25 1012.3
20260503174015 68 277 6.0 23.0 0.00 0.00 0.00 24 1012.4
20260503173519 67 331 15.0 23.0 0.00 0.00 0.00 25 1012.4
20260503173056 67 316 12.0 21.0 0.00 0.00 0.00 25 1012.4
20260503172516 67 244 11.0 18.0 0.00 0.00 0.00 25 1012.5
20260503172019 68 244 13.0 17.0 0.00 0.00 0.00 25 1012.5
20260503171547 67 309 4.0 9.0 0.00 0.00 0.00 28 1012.7
20260503171016 66 297 4.0 18.0 0.00 0.00 0.00 27 1012.8
20260503170517 66 331 13.0 18.0 0.00 0.00 0.00 27 1012.8
20260503150516 57 265 12.0 16.0 0.00 0.00 0.00 53 1013.1